Location: Baia Mare
(47.6567°N, 23.5850°E)
Time: 22:45:08
(UTC+03:00)

ISS - Pass Details

Date: 11 September 2019
Orbit: 411 x 421 km, 51.6° (Epoch: 19 September)

Event Time Altitude Azimuth Distance (km) Brightness Sun altitude
Exits shadow 04:56:46 40° 326° (NW) 628 -3.0 -19.8°
Maximum altitude 04:57:35 52° 14° (NNE) 524 -3.1 -19.6°
Drops below altitude 10° 05:00:52 10° 93° (E) 1,492 -0.2 -19.2°
Sets 05:03:00 0° 98° (E) 2,355 0.9 -18.9°
